Location: Newark
(45.8667°N, 9.7333°E)
Time: 19:35:59
(UTC+00:00)

NOAA 18 - Visible Passes

Search period start: 27 February 2021 00:00
Search period end: 09 March 2021 00:00
Orbit: 840 x 860 km, 99.0° (Epoch: 27 February)

Date Brightness Start Highest point End Pass type
(mag) Time Alt. Az. Time Alt. Az. Time Alt. Az.
27 Feb 6.5 19:27:57 27° NNE 19:27:57 27° NNE 19:31:07 10° N visible
27 Feb 7.3 21:09:57 22° NW 21:09:57 22° NW 21:12:02 10° NNW visible
28 Feb 6.5 19:15:48 24° NE 19:15:48 24° NE 19:19:01 10° N visible
28 Feb 7.1 20:57:47 26° NW 20:57:47 26° NW 21:00:17 10° NNW visible
01 Mar 6.7 19:03:39 21° NE 19:03:39 21° NE 19:06:52 10° N visible
01 Mar 6.8 20:45:38 31° NNW 20:45:38 31° NNW 20:48:28 10° NNW visible
02 Mar 6.8 18:51:29 18° NE 18:51:29 18° NE 18:54:38 10° NNE visible
02 Mar 6.5 20:33:29 35° NNW 20:33:29 35° NNW 20:36:37 10° NNW visible
03 Mar 6.9 18:39:21 15° NE 18:39:21 15° NE 18:42:16 10° NNE visible
03 Mar 6.3 20:21:20 39° N 20:21:20 39° N 20:24:44 10° NNW visible
03 Mar 8.1 22:03:19 11° WNW 22:03:19 11° WNW 22:03:40 10° NW visible
04 Mar 7.1 18:27:11 12° ENE 18:27:39 12° NE 18:29:38 10° NNE visible
04 Mar 6.1 20:09:11 41° N 20:09:11 41° N 20:12:49 10° N visible
04 Mar 7.8 21:51:10 14° NW 21:51:10 14° NW 21:52:23 10° NW visible
05 Mar 6.0 19:57:02 40° NNE 19:57:02 40° NNE 20:00:51 10° N visible
05 Mar 7.6 21:39:01 18° NW 21:39:01 18° NW 21:40:53 10° NW visible
06 Mar 6.0 19:44:53 37° NE 19:44:53 37° NE 19:48:51 10° N visible
06 Mar 7.4 21:26:52 22° NW 21:26:52 22° NW 21:29:18 10° NW visible
07 Mar 6.1 19:32:45 33° NE 19:32:45 33° NE 19:36:49 10° N visible
07 Mar 7.1 21:14:44 27° NW 21:14:44 27° NW 21:17:37 10° NNW visible
08 Mar 6.3 19:20:35 28° NE 19:20:35 28° NE 19:24:45 10° N visible
08 Mar 6.7 21:02:35 33° NW 21:02:35 33° NW 21:05:52 10° NNW visible
